Hourly Data Report for October 18, 2016

All times are specified in Local Standard Time (LST). Add 1 hour to adjust for Daylight Saving Time where and when it is observed.

KUGAARUK CLIMATE
NUNAVUT

68°32'15.060" N
89°47'47.020" W
15.80 m
2303094
71407
NBB

Download Data

Hourly Data (October 2016)
Hourly Data Report for October 18, 2016
Temp Definition
°C
Dew Point Temp Definition
°C
Rel Hum Definition
%
Wind Dir Definition
10's deg

Wind Spd Definition
km/h
Visibility Definition
km
Stn Press Definition
kPa
Hmdx Definition


Wind Chill Definition


Weather Definition


TIME
00:00 -9.5 -12.6 78 28 17   102.35   -17 LegendNANA
01:00 -9.4 -12.7 76 28 16   102.39   -16 LegendNANA
02:00 -8.9 -12.3 76 28 16   102.40   -16 LegendNANA
03:00 -9.1 -12.4 77 29 15   102.42   -16 LegendNANA
04:00 -8.9 -12.2 77 28 17   102.42   -16 LegendNANA
05:00 -8.9 -12.4 75 28 17   102.42   -16 LegendNANA
06:00 -8.9 -12.9 73 29 15   102.43   -15 LegendNANA
07:00 -9.0 -12.8 74 25 15   102.42   -16 LegendNANA
08:00 -9.1 -12.7 75 27 13   102.41   -15 LegendNANA
09:00 -9.6 -12.9 77 22 18   102.40   -17 LegendNANA
10:00 -10.4 -13.7 77 21 18   102.41   -18 LegendNANA
11:00 -11.2 -14.2 78 20 15   102.40   -18 LegendNANA
12:00 -12.7 -15.5 79 19 16   102.39   -20 LegendNANA
13:00 -13.0 -17.5 69 13 3   102.36   -15 LegendNANA
14:00 -13.9 -17.4 75 3 1   102.34   -15 LegendNANA
15:00 -16.7 -19.0 82 4 9   102.31   -23 LegendNANA
16:00 -16.5 -18.5 84 1 8   102.29   -22 LegendNANA
17:00 -15.9 -17.8 85 3 8   102.21   -21 LegendNANA
18:00 -14.3 -16.4 84 3 11   102.09   -21 LegendNANA
19:00 -13.0 -15.1 85 5 7   102.03   -18 LegendNANA
20:00 -11.5 -13.5 85 5 5   101.98   -15 LegendNANA
21:00 -8.8 -11.2 83 22 20   101.89   -16 LegendNANA
22:00 -8.3 -10.7 83 20 26   101.82   -17 LegendNANA
23:00 -7.9 -10.2 83 20 25   101.76   -16 LegendNANA

Notes on Data Quality.

Legend

  • E = Estimated
  • M = Missing
  • NA = Not Available
  • ‡ = Partner data that is not subject to review by the National Climate Archives
Date modified: